Location: ?????
(31.8092°N, 35.2590°E)
Time: 20:05:49
(UTC+00:00)

Cosmos 1975 Rocket - Pass Details

Date: 20 June 2021
Orbit: 603 x 633 km, 82.5° (Epoch: 02 August)

Event Time Altitude Azimuth Distance (km) Brightness Sun altitude
Exits shadow 17:32:37 11° 139° (SE) 1,908 4.9 -9.0°
Maximum altitude 17:35:51 23° 89° (E) 1,328 4.3 -9.5°
Drops below altitude 10° 17:39:15 10° 38° (NE) 1,980 5.6 -10.1°
Sets 17:41:51 0° 23° (NNE) 2,896 6.7 -10.6°
